ECHO 2 DEB (METAL OBJ), 743

Orbit data source: Space-Track

ECHO 2 DEB (METAL OBJ), 743 is space debris in LEO originally from a launch on Sat, 25 Jan 1964 UTC launched from the Air Force Western Test Range (AFWTR). Debris objects in space refer to the collection of defunct objects orbiting the Earth. Examples of debris include non-operational satellites, rocket bodies, and fragments generated from explosions, collisions, or faulty payload assembly.

Loading next visibility...
Identifier
743, 1964-004D
Orbit
LEO
Country
Flag of USUS
Related business
Manufacturer
Grummann
Mission
Spacecraft
Bus & Motor
ECHO CANISTER, Unknown motor
Mass
35 kg wet, 35 kg dry
Launch date (UTC)
1964-01-25 (62 years ago)
Launch vehicle
Unknown
Launch site
Air Force Western Test Range (AFWTR)
Object type
Payload
Rocket body
Debris
Shape & HBR
Unknown shape, 0.9 m
Radar Cross Section
Medium (>0.1 m² and <1 m²)

Expand to show TLE details & history
Last TLE update: 20 hours ago

TLE from 20 hours ago
0 ECHO 2 DEB (METAL OBJ)
1 00743U 64004D   25309.56785192  .00000169  00000-0  32785-3 0  9994
2 00743  81.5231 348.2750 0174599 188.5378 325.0288 13.26837694988473
Epoch: 2025-11-05T13:37Z
TLE epoch observation values (Epoch: 2025-11-05T13:37:42.405Z)
Latitude
27.31365°
Longitude
-85.5819°
Altitude
1,054.879 km
Speed
7.379 km/s
True Right ascension
10h 55m 32s
True Declination
27° 10' 45"
Sunlit
Object was in daylight at epoch
Visualization orbit readout
Latitude
Unknown
Longitude
Unknown
Altitude
Unknown
Speed
Unknown
Apparent Right ascension
Unknown
Apparent Declination
Unknown
Sunlit
N/A
Visualization observer readout
Local Sidereal Time
05:27:30
Azimuth
Unknown
Elevation
Unknown
Doppler factor
Unknown
Orbital elements
Apogee altitude
1,287.533 km
Perigee altitude
1,024.443 km
Semi-major axis
7,534.125 km
Eccentricity
0.01746
Inclination
81.5231°
RAAN
348.275°
Arg. of periapsis
188.5378°
True anomaly
323.86125°
Mean anomaly
325.0288°
Eccentric anomaly
324.44713°
Mean motion
3.3189 °/min
Orbital period
108.47 mins
BSTAR
0.00032785
Loading maneuver chart data...
Computing Atmospheric mass density...
Loading historical data...
Loading historical data...
Loading historical data...
Loading historical data...
Loading historical data...
Loading historical data...
Loading historical data...

Documentation

Showing up to 5 results
|